Flag for Uganda Weather past 2 weeks in Entebbe, Uganda

73 °F

Partly sunny.

Feels Like: 74 °F
Forecast: 67 / 78 °F
Wind: 6 mph from West

Location: Entebbe Airport

Current Time: Nov 27, 2015 at 6:51:15 PM

Latest Report: Nov 27, 2015 at 6:00 PM

Visibility: N/A

Pressure: 30.01 "Hg (26.25 "Hg at 1160m altitude)

Humidity: 78%

Dew point: 66 °F

Location of EntebbeLocation

Historic Weather in Entebbe — Graph


Entebbe temperature yesterday

Maximum temperature yesterday: 79 °F (at 3:00 PM)
Minimum temperature yesterday: 68 °F (at 6:00 AM)
Average temperature yesterday: 73 °F

Past Weeks' High & Low Weather Summary

High84 °F (Nov 18, 4:00 PM)100% (Nov 15, 10:00 AM)30.12 "Hg (Nov 15, 10:00 AM)
Low64 °F (Nov 16, 7:00 AM)51% (Nov 18, 4:00 PM)29.89 "Hg (Nov 15, 3:00 PM)
Average73 °F83%30.01 "Hg
* Reported Nov 12 6:00 PM — Nov 27 5:00 PM, Entebbe, Weather by CustomWeather, © 2015

Note: Actual official high and low records may vary slightly from our data, if they occured in-between our weather recording intervals... More about our weather records


Entebbe weather history for previous 24 hours

Time TempWeatherWind HumidityBarometerVisibility
5:00 PM
Fri, Nov 27
75 °FPartly sunny.5 mph74%29.98 "HgN/A
3:00 PM75 °FBroken clouds.8 mph74%30.07 "HgN/A
2:00 PM75 °FPartly sunny.5 mph74%30.07 "HgN/A
1:00 PM72 °FBroken clouds.6 mph78%30.09 "HgN/A
12:00 PM70 °FBroken clouds.7 mph83%30.12 "HgN/A
10:00 AM66 °FLight rain. Mostly cloudy.6 mph94%30.12 "Hg6 mi
9:00 AM66 °FLight rain. Overcast.9 mph88%30.12 "Hg5 mi
8:00 AM64 °FThunderstorms. Overcast.12 mph94%30.09 "Hg4 mi
7:00 AM64 °FThunderstorms. Overcast.13 mph94%30.09 "Hg4 mi
6:00 AM64 °FThunderstorms. Passing clouds.15 mph94%30.07 "Hg5 mi
5:00 AM64 °FThunderstorms. Passing clouds.9 mph100%30.07 "Hg5 mi
3:00 AM66 °FThunderstorms. Mostly cloudy.16 mph94%30.04 "Hg4 mi
2:00 AM66 °FThunderstorms. Mostly cloudy.18 mph94%30.04 "Hg3 mi
1:00 AM66 °FThunderstorms. Mostly cloudy.9 mph100%30.04 "Hg4 mi
12:00 AM70 °FThundershowers. Overcast.18 mph88%30.01 "Hg4 mi
10:00 PM
Thu, Nov 26
73 °FPassing clouds.16 mph83%30.01 "Hg5 mi
9:00 PM73 °FPassing clouds.14 mph78%29.98 "Hg5 mi
8:00 PM73 °FPassing clouds.12 mph78%29.98 "Hg5 mi
7:00 PM73 °FPassing clouds.8 mph83%29.95 "Hg5 mi
6:00 PM75 °FPartly sunny.9 mph78%29.92 "Hg6 mi
Weather by CustomWeather, © 2015

See weather overviewHow to use our weather pages